Weather History for Orangeburg, SC

Change the Weather History Date:

Monday, December 16, 2013

  Actual Average Record
Temperature  
Mean Temperature 47 °F 48 °F  
Max Temperature 60 °F 58 °F 77 °F (1971)
Min Temperature 33 °F 37 °F 18 °F (1962)
Degree Days  
Heating Degree Days 18 18  
Month to date heating degree days 188 253  
Since 1 July heating degree days 584 622  
Cooling Degree Days 0 0  
Month to date cooling degree days 7 0  
Year to date cooling degree days 2049 2102  
Moisture  
Dew Point 33 °F    
Average Humidity 65    
Maximum Humidity 89    
Minimum Humidity 35    
Precipitation  
Precipitation 0.00 in 0.12 in 1.55 in (1970)
Month to date precipitation 2.47 1.79  
Year to date precipitation 53.63 45.20  
Sea Level Pressure  
Sea Level Pressure 30.19 in    
Wind  
Wind Speed 5 mph (WSW)    
Max Wind Speed 14 mph    
Max Gust Speed 21 mph    
Visibility 10 miles    
Events      
T = Trace of Precipitation, MM = Missing Value Source: NWS Daily Summary

Daily Weather History Graph

Daily Weather History Graph

Search for Another Location

Airport:

Trip Planner

Search our weather history database for the weather conditions in past years. The results will help you decide how hot, cold, wet, or windy it might be!

Date:

Astronomy

Dec. 16, 2013 Rise Set
Actual Time 7:20 AM EST 5:17 PM EST
Civil Twilight 6:53 AM EST 5:45 PM EST
Nautical Twilight 6:22 AM EST 6:16 PM EST
Astronomical Twilight 5:51 AM EST 6:46 PM EST
Moon 5:04 PM EST (12/16) 6:30 AM EST (12/16)
Length of Visible Light 10h 51m
Length of Day
9h 56m
Full, 100% of the Moon is Illuminated
Dec 16
Full
Dec 17
Full
Dec 25
Last Quarter
Jan 1
New
Jan 7
First Quarter

Hourly Weather History & Observations

Time (EST) Temp. Windchill Dew Point Humidity Pressure Visibility Wind Dir Wind Speed Gust Speed Precip Events Conditions
12:53 AM 39.0 °F 36.8 °F 34.0 °F 82% 30.15 in 10.0 mi West 3.5 mph - N/A   Clear
1:53 AM 37.0 °F - 33.1 °F 86% 30.15 in 10.0 mi Calm Calm - N/A   Clear
2:53 AM 37.0 °F 34.5 °F 33.1 °F 86% 30.16 in 10.0 mi NW 3.5 mph - N/A   Clear
3:53 AM 36.0 °F 32.1 °F 32.0 °F 86% 30.17 in 10.0 mi WNW 4.6 mph - N/A   Clear
4:53 AM 35.1 °F 32.2 °F 30.9 °F 85% 30.17 in 10.0 mi WNW 3.5 mph - N/A   Clear
5:53 AM 34.0 °F - 30.9 °F 89% 30.18 in 10.0 mi Calm Calm - N/A   Clear
6:53 AM 34.0 °F 31.0 °F 30.0 °F 85% 30.19 in 9.0 mi NW 3.5 mph - N/A   Clear
7:53 AM 34.0 °F 28.8 °F 30.0 °F 85% 30.22 in 8.0 mi NW 5.8 mph - N/A   Clear
8:53 AM 37.9 °F 35.5 °F 30.9 °F 76% 30.22 in 9.0 mi NW 3.5 mph - N/A   Clear
9:53 AM 43.0 °F - 33.1 °F 68% 30.24 in 10.0 mi Calm Calm - N/A   Clear
10:53 AM 51.1 °F - 33.1 °F 50% 30.23 in 10.0 mi West 4.6 mph - N/A   Clear
11:53 AM 54.0 °F - 34.0 °F 47% 30.21 in 10.0 mi West 10.4 mph - N/A   Clear
12:53 PM 55.9 °F - 34.0 °F 44% 30.18 in 10.0 mi WSW 10.4 mph - N/A   Clear
1:53 PM 57.9 °F - 33.1 °F 39% 30.17 in 10.0 mi WSW 11.5 mph - N/A   Clear
2:53 PM 59.0 °F - 33.1 °F 38% 30.16 in 10.0 mi SW 6.9 mph - N/A   Clear
3:53 PM 60.1 °F - 32.0 °F 35% 30.16 in 10.0 mi SW 10.4 mph - N/A   Clear
4:53 PM 57.0 °F - 34.0 °F 42% 30.17 in 10.0 mi SW 5.8 mph - N/A   Clear
5:53 PM 53.1 °F - 34.0 °F 48% 30.18 in 10.0 mi SW 4.6 mph - N/A   Clear
6:53 PM 50.0 °F - 35.1 °F 57% 30.19 in 10.0 mi SSW 4.6 mph - N/A   Clear
7:53 PM 48.0 °F - 36.0 °F 63% 30.20 in 10.0 mi SW 5.8 mph - N/A   Clear
8:53 PM 46.0 °F 43.1 °F 35.1 °F 66% 30.20 in 10.0 mi SSW 5.8 mph - N/A   Clear
9:53 PM 44.1 °F - 35.1 °F 71% 30.22 in 10.0 mi Calm Calm - N/A   Clear
10:53 PM 43.0 °F - 34.0 °F 71% 30.22 in 10.0 mi Calm Calm - N/A   Clear
11:53 PM 42.1 °F - 33.1 °F 70% 30.22 in 10.0 mi Calm Calm - N/A   Clear